owner,sensor,date,latitude,longitude,mass_concentration_of_chlorophyll_in_sea_water,qcFlag 
LUMCON,ioos:station:LUMCON:wisl1:1,2019-07-01T00:00:00Z,29.1144,-90.1840,16.55,11111222 
LUMCON,ioos:station:LUMCON:wisl1:1,2019-07-01T00:15:00Z,29.1144,-90.1840,16.99,11111222 
LUMCON,ioos:station:LUMCON:wisl1:1,2019-07-01T00:30:00Z,29.1144,-90.1840,17.54,11111222 
LUMCON,ioos:station:LUMCON:wisl1:1,2019-07-01T00:45:00Z,29.1144,-90.1840,17.29,11111222 
LUMCON,ioos:station:LUMCON:wisl1:1,2019-07-01T01:00:00Z,29.1144,-90.1840,17.52,11111222 
LUMCON,ioos:station:LUMCON:wisl1:1,2019-07-01T01:15:00Z,29.1144,-90.1840,17.32,11111222 
LUMCON,ioos:station:LUMCON:wisl1:1,2019-07-01T01:30:00Z,29.1144,-90.1840,16.88,11111222 
LUMCON,ioos:station:LUMCON:wisl1:1,2019-07-01T01:45:00Z,29.1144,-90.1840,17.09,11111222 
LUMCON,ioos:station:LUMCON:wisl1:1,2019-07-01T02:00:00Z,29.1144,-90.1840,16.11,11111222 
LUMCON,ioos:station:LUMCON:wisl1:1,2019-07-01T02:15:00Z,29.1144,-90.1840,16.5,11111222 
LUMCON,ioos:station:LUMCON:wisl1:1,2019-07-01T02:30:00Z,29.1144,-90.1840,17.41,11111222 
LUMCON,ioos:station:LUMCON:wisl1:1,2019-07-01T02:45:00Z,29.1144,-90.1840,16.41,11111222 
LUMCON,ioos:station:LUMCON:wisl1:1,2019-07-01T03:00:00Z,29.1144,-90.1840,17.16,11111222 
LUMCON,ioos:station:LUMCON:wisl1:1,2019-07-01T03:15:00Z,29.1144,-90.1840,17.91,11111222 
LUMCON,ioos:station:LUMCON:wisl1:1,2019-07-01T03:30:00Z,29.1144,-90.1840,16.75,11111222 
LUMCON,ioos:station:LUMCON:wisl1:1,2019-07-01T03:45:00Z,29.1144,-90.1840,15.96,11111222 
LUMCON,ioos:station:LUMCON:wisl1:1,2019-07-01T04:00:00Z,29.1144,-90.1840,16.4,11111222 
LUMCON,ioos:station:LUMCON:wisl1:1,2019-07-01T04:15:00Z,29.1144,-90.1840,16.38,11111222 
LUMCON,ioos:station:LUMCON:wisl1:1,2019-07-01T04:30:00Z,29.1144,-90.1840,16.25,11111222 
LUMCON,ioos:station:LUMCON:wisl1:1,2019-07-01T04:45:00Z,29.1144,-90.1840,17.19,11111222 
LUMCON,ioos:station:LUMCON:wisl1:1,2019-07-01T05:00:00Z,29.1144,-90.1840,16.35,11111222 
LUMCON,ioos:station:LUMCON:wisl1:1,2019-07-01T05:15:00Z,29.1144,-90.1840,17.54,11111222 
LUMCON,ioos:station:LUMCON:wisl1:1,2019-07-01T05:30:00Z,29.1144,-90.1840,16.78,11111222 
LUMCON,ioos:station:LUMCON:wisl1:1,2019-07-01T05:45:00Z,29.1144,-90.1840,16.34,11111222 
LUMCON,ioos:station:LUMCON:wisl1:1,2019-07-01T06:00:00Z,29.1144,-90.1840,16.11,11111222 
LUMCON,ioos:station:LUMCON:wisl1:1,2019-07-01T06:15:00Z,29.1144,-90.1840,16.34,11111222 
LUMCON,ioos:station:LUMCON:wisl1:1,2019-07-01T06:30:00Z,29.1144,-90.1840,16.86,11111222 
LUMCON,ioos:station:LUMCON:wisl1:1,2019-07-01T06:45:00Z,29.1144,-90.1840,14.98,11111222 
LUMCON,ioos:station:LUMCON:wisl1:1,2019-07-01T07:00:00Z,29.1144,-90.1840,13.91,11111222 
LUMCON,ioos:station:LUMCON:wisl1:1,2019-07-01T07:15:00Z,29.1144,-90.1840,19.02,11111222 
LUMCON,ioos:station:LUMCON:wisl1:1,2019-07-01T07:30:00Z,29.1144,-90.1840,9.89,11111222 
LUMCON,ioos:station:LUMCON:wisl1:1,2019-07-01T07:45:00Z,29.1144,-90.1840,10.4,11111222 
LUMCON,ioos:station:LUMCON:wisl1:1,2019-07-01T08:00:00Z,29.1144,-90.1840,8.72,11111222 
LUMCON,ioos:station:LUMCON:wisl1:1,2019-07-01T08:15:00Z,29.1144,-90.1840,7.19,11111222 
LUMCON,ioos:station:LUMCON:wisl1:1,2019-07-01T08:30:00Z,29.1144,-90.1840,5.39,11111222 
LUMCON,ioos:station:LUMCON:wisl1:1,2019-07-01T08:45:00Z,29.1144,-90.1840,5.49,11111222 
LUMCON,ioos:station:LUMCON:wisl1:1,2019-07-01T09:00:00Z,29.1144,-90.1840,5.17,11111222 
LUMCON,ioos:station:LUMCON:wisl1:1,2019-07-01T09:15:00Z,29.1144,-90.1840,4.76,11111222 
LUMCON,ioos:station:LUMCON:wisl1:1,2019-07-01T09:30:00Z,29.1144,-90.1840,4.52,11111222 
LUMCON,ioos:station:LUMCON:wisl1:1,2019-07-01T09:45:00Z,29.1144,-90.1840,4.49,11111222 
LUMCON,ioos:station:LUMCON:wisl1:1,2019-07-01T10:00:00Z,29.1144,-90.1840,4.82,11111222 
LUMCON,ioos:station:LUMCON:wisl1:1,2019-07-01T10:15:00Z,29.1144,-90.1840,4.22,11111222 
LUMCON,ioos:station:LUMCON:wisl1:1,2019-07-01T10:30:00Z,29.1144,-90.1840,5.11,11111222 
LUMCON,ioos:station:LUMCON:wisl1:1,2019-07-01T10:45:00Z,29.1144,-90.1840,4.08,11111222 
LUMCON,ioos:station:LUMCON:wisl1:1,2019-07-01T11:00:00Z,29.1144,-90.1840,4.18,11111222 
LUMCON,ioos:station:LUMCON:wisl1:1,2019-07-01T11:15:00Z,29.1144,-90.1840,4.13,11111222 
LUMCON,ioos:station:LUMCON:wisl1:1,2019-07-01T11:30:00Z,29.1144,-90.1840,3.83,11111222 
LUMCON,ioos:station:LUMCON:wisl1:1,2019-07-01T11:45:00Z,29.1144,-90.1840,4.4,11111222 
LUMCON,ioos:station:LUMCON:wisl1:1,2019-07-01T12:00:00Z,29.1144,-90.1840,4.41,11111222 
LUMCON,ioos:station:LUMCON:wisl1:1,2019-07-01T12:15:00Z,29.1144,-90.1840,3.95,11111222 
LUMCON,ioos:station:LUMCON:wisl1:1,2019-07-01T12:30:00Z,29.1144,-90.1840,4.22,11111222 
LUMCON,ioos:station:LUMCON:wisl1:1,2019-07-01T12:45:00Z,29.1144,-90.1840,4.12,11111222 
LUMCON,ioos:station:LUMCON:wisl1:1,2019-07-01T13:00:00Z,29.1144,-90.1840,3.78,11111222 
LUMCON,ioos:station:LUMCON:wisl1:1,2019-07-01T13:15:00Z,29.1144,-90.1840,3.42,11111222 
LUMCON,ioos:station:LUMCON:wisl1:1,2019-07-01T13:30:00Z,29.1144,-90.1840,3.75,11111222 
LUMCON,ioos:station:LUMCON:wisl1:1,2019-07-01T13:45:00Z,29.1144,-90.1840,3.67,11111222 
LUMCON,ioos:station:LUMCON:wisl1:1,2019-07-01T14:00:00Z,29.1144,-90.1840,3.7,11111222 
LUMCON,ioos:station:LUMCON:wisl1:1,2019-07-01T14:15:00Z,29.1144,-90.1840,4.35,11111222 
LUMCON,ioos:station:LUMCON:wisl1:1,2019-07-01T14:30:00Z,29.1144,-90.1840,3.49,11111222 
LUMCON,ioos:station:LUMCON:wisl1:1,2019-07-01T14:45:00Z,29.1144,-90.1840,3.8,11111222 
LUMCON,ioos:station:LUMCON:wisl1:1,2019-07-01T15:00:00Z,29.1144,-90.1840,4.0,11111222 
LUMCON,ioos:station:LUMCON:wisl1:1,2019-07-01T15:15:00Z,29.1144,-90.1840,3.56,11111222 
LUMCON,ioos:station:LUMCON:wisl1:1,2019-07-01T15:30:00Z,29.1144,-90.1840,3.08,11111222 
LUMCON,ioos:station:LUMCON:wisl1:1,2019-07-01T15:45:00Z,29.1144,-90.1840,3.89,11111222 
LUMCON,ioos:station:LUMCON:wisl1:1,2019-07-01T16:00:00Z,29.1144,-90.1840,3.52,11111222 
LUMCON,ioos:station:LUMCON:wisl1:1,2019-07-01T16:15:00Z,29.1144,-90.1840,3.45,11111222 
LUMCON,ioos:station:LUMCON:wisl1:1,2019-07-01T16:30:00Z,29.1144,-90.1840,2.63,11111222 
LUMCON,ioos:station:LUMCON:wisl1:1,2019-07-01T16:45:00Z,29.1144,-90.1840,3.07,11111222 
LUMCON,ioos:station:LUMCON:wisl1:1,2019-07-01T17:00:00Z,29.1144,-90.1840,3.52,11111222 
LUMCON,ioos:station:LUMCON:wisl1:1,2019-07-01T17:15:00Z,29.1144,-90.1840,4.2,11111222 
LUMCON,ioos:station:LUMCON:wisl1:1,2019-07-01T17:30:00Z,29.1144,-90.1840,4.71,11111222 
LUMCON,ioos:station:LUMCON:wisl1:1,2019-07-01T17:45:00Z,29.1144,-90.1840,4.88,11111222 
LUMCON,ioos:station:LUMCON:wisl1:1,2019-07-01T18:00:00Z,29.1144,-90.1840,5.16,11111222 
LUMCON,ioos:station:LUMCON:wisl1:1,2019-07-01T18:15:00Z,29.1144,-90.1840,5.48,11111222 
LUMCON,ioos:station:LUMCON:wisl1:1,2019-07-01T18:30:00Z,29.1144,-90.1840,6.27,11111222 
LUMCON,ioos:station:LUMCON:wisl1:1,2019-07-01T18:45:00Z,29.1144,-90.1840,6.65,11111222 
LUMCON,ioos:station:LUMCON:wisl1:1,2019-07-01T19:00:00Z,29.1144,-90.1840,7.9,11111222 
LUMCON,ioos:station:LUMCON:wisl1:1,2019-07-01T19:15:00Z,29.1144,-90.1840,9.94,11111222 
LUMCON,ioos:station:LUMCON:wisl1:1,2019-07-01T19:30:00Z,29.1144,-90.1840,10.39,11111222 
LUMCON,ioos:station:LUMCON:wisl1:1,2019-07-01T19:45:00Z,29.1144,-90.1840,12.3,11111222 
LUMCON,ioos:station:LUMCON:wisl1:1,2019-07-01T20:00:00Z,29.1144,-90.1840,13.8,11111222 
LUMCON,ioos:station:LUMCON:wisl1:1,2019-07-01T20:15:00Z,29.1144,-90.1840,14.67,11111222 
LUMCON,ioos:station:LUMCON:wisl1:1,2019-07-01T20:30:00Z,29.1144,-90.1840,14.94,11111222 
LUMCON,ioos:station:LUMCON:wisl1:1,2019-07-01T20:45:00Z,29.1144,-90.1840,15.78,11111222 
LUMCON,ioos:station:LUMCON:wisl1:1,2019-07-01T21:00:00Z,29.1144,-90.1840,15.55,11111222 
LUMCON,ioos:station:LUMCON:wisl1:1,2019-07-01T21:15:00Z,29.1144,-90.1840,15.51,11111222 
LUMCON,ioos:station:LUMCON:wisl1:1,2019-07-01T21:30:00Z,29.1144,-90.1840,17.12,11111222 
LUMCON,ioos:station:LUMCON:wisl1:1,2019-07-01T21:45:00Z,29.1144,-90.1840,18.56,11111222 
LUMCON,ioos:station:LUMCON:wisl1:1,2019-07-01T22:00:00Z,29.1144,-90.1840,17.8,11111222 
LUMCON,ioos:station:LUMCON:wisl1:1,2019-07-01T22:15:00Z,29.1144,-90.1840,18.66,11111222 
LUMCON,ioos:station:LUMCON:wisl1:1,2019-07-01T22:30:00Z,29.1144,-90.1840,17.45,11111222 
LUMCON,ioos:station:LUMCON:wisl1:1,2019-07-01T22:45:00Z,29.1144,-90.1840,18.51,11111222 
LUMCON,ioos:station:LUMCON:wisl1:1,2019-07-01T23:00:00Z,29.1144,-90.1840,18.9,11111222 
LUMCON,ioos:station:LUMCON:wisl1:1,2019-07-01T23:15:00Z,29.1144,-90.1840,18.24,11111222 
LUMCON,ioos:station:LUMCON:wisl1:1,2019-07-01T23:30:00Z,29.1144,-90.1840,18.87,11111222 
LUMCON,ioos:station:LUMCON:wisl1:1,2019-07-01T23:45:00Z,29.1144,-90.1840,19.12,11111222 
LUMCON,ioos:station:LUMCON:wisl1:1,2019-07-02T00:00:00Z,29.1144,-90.1840,18.36,11111222 
LUMCON,ioos:station:LUMCON:wisl1:1,2019-07-02T00:15:00Z,29.1144,-90.1840,19.2,11111222 
LUMCON,ioos:station:LUMCON:wisl1:1,2019-07-02T00:30:00Z,29.1144,-90.1840,19.46,11111222 
LUMCON,ioos:station:LUMCON:wisl1:1,2019-07-02T00:45:00Z,29.1144,-90.1840,19.84,11111222 
LUMCON,ioos:station:LUMCON:wisl1:1,2019-07-02T01:00:00Z,29.1144,-90.1840,19.67,11111222 
LUMCON,ioos:station:LUMCON:wisl1:1,2019-07-02T01:15:00Z,29.1144,-90.1840,20.03,11111222 
LUMCON,ioos:station:LUMCON:wisl1:1,2019-07-02T01:30:00Z,29.1144,-90.1840,19.11,11111222 
LUMCON,ioos:station:LUMCON:wisl1:1,2019-07-02T01:45:00Z,29.1144,-90.1840,19.55,11111222 
LUMCON,ioos:station:LUMCON:wisl1:1,2019-07-02T02:00:00Z,29.1144,-90.1840,19.2,11111222 
LUMCON,ioos:station:LUMCON:wisl1:1,2019-07-02T02:15:00Z,29.1144,-90.1840,19.43,11111222 
LUMCON,ioos:station:LUMCON:wisl1:1,2019-07-02T02:30:00Z,29.1144,-90.1840,19.59,11111222 
LUMCON,ioos:station:LUMCON:wisl1:1,2019-07-02T02:45:00Z,29.1144,-90.1840,19.73,11111222 
LUMCON,ioos:station:LUMCON:wisl1:1,2019-07-02T03:00:00Z,29.1144,-90.1840,19.12,11111222 
LUMCON,ioos:station:LUMCON:wisl1:1,2019-07-02T03:15:00Z,29.1144,-90.1840,18.82,11111222 
LUMCON,ioos:station:LUMCON:wisl1:1,2019-07-02T03:30:00Z,29.1144,-90.1840,17.81,11111222 
LUMCON,ioos:station:LUMCON:wisl1:1,2019-07-02T03:45:00Z,29.1144,-90.1840,18.44,11111222 
LUMCON,ioos:station:LUMCON:wisl1:1,2019-07-02T04:00:00Z,29.1144,-90.1840,18.42,11111222 
LUMCON,ioos:station:LUMCON:wisl1:1,2019-07-02T04:15:00Z,29.1144,-90.1840,21.67,11111222 
LUMCON,ioos:station:LUMCON:wisl1:1,2019-07-02T04:30:00Z,29.1144,-90.1840,20.38,11111222 
LUMCON,ioos:station:LUMCON:wisl1:1,2019-07-02T04:45:00Z,29.1144,-90.1840,18.75,11111222 
LUMCON,ioos:station:LUMCON:wisl1:1,2019-07-02T05:00:00Z,29.1144,-90.1840,18.7,11111222 
LUMCON,ioos:station:LUMCON:wisl1:1,2019-07-02T05:15:00Z,29.1144,-90.1840,18.61,11111222 
LUMCON,ioos:station:LUMCON:wisl1:1,2019-07-02T05:30:00Z,29.1144,-90.1840,18.46,11111222 
LUMCON,ioos:station:LUMCON:wisl1:1,2019-07-02T05:45:00Z,29.1144,-90.1840,18.66,11111222 
LUMCON,ioos:station:LUMCON:wisl1:1,2019-07-02T06:00:00Z,29.1144,-90.1840,19.45,11111222 
LUMCON,ioos:station:LUMCON:wisl1:1,2019-07-02T06:15:00Z,29.1144,-90.1840,20.63,11111222 
LUMCON,ioos:station:LUMCON:wisl1:1,2019-07-02T06:30:00Z,29.1144,-90.1840,18.98,11111222 
LUMCON,ioos:station:LUMCON:wisl1:1,2019-07-02T06:45:00Z,29.1144,-90.1840,19.29,11111222 
LUMCON,ioos:station:LUMCON:wisl1:1,2019-07-02T07:00:00Z,29.1144,-90.1840,19.38,11111222 
LUMCON,ioos:station:LUMCON:wisl1:1,2019-07-02T07:15:00Z,29.1144,-90.1840,18.49,11111222 
LUMCON,ioos:station:LUMCON:wisl1:1,2019-07-02T07:30:00Z,29.1144,-90.1840,18.57,11111222 
LUMCON,ioos:station:LUMCON:wisl1:1,2019-07-02T07:45:00Z,29.1144,-90.1840,18.3,11111222 
LUMCON,ioos:station:LUMCON:wisl1:1,2019-07-02T08:00:00Z,29.1144,-90.1840,17.11,11111222 
LUMCON,ioos:station:LUMCON:wisl1:1,2019-07-02T08:15:00Z,29.1144,-90.1840,17.39,11111222 
LUMCON,ioos:station:LUMCON:wisl1:1,2019-07-02T08:30:00Z,29.1144,-90.1840,17.58,11111222 
LUMCON,ioos:station:LUMCON:wisl1:1,2019-07-02T08:45:00Z,29.1144,-90.1840,15.68,11111222 
LUMCON,ioos:station:LUMCON:wisl1:1,2019-07-02T09:00:00Z,29.1144,-90.1840,14.69,11111222 
LUMCON,ioos:station:LUMCON:wisl1:1,2019-07-02T09:15:00Z,29.1144,-90.1840,13.59,11111222 
LUMCON,ioos:station:LUMCON:wisl1:1,2019-07-02T09:30:00Z,29.1144,-90.1840,13.47,11111222 
LUMCON,ioos:station:LUMCON:wisl1:1,2019-07-02T09:45:00Z,29.1144,-90.1840,13.07,11111222 
LUMCON,ioos:station:LUMCON:wisl1:1,2019-07-02T10:00:00Z,29.1144,-90.1840,11.26,11111222 
LUMCON,ioos:station:LUMCON:wisl1:1,2019-07-02T10:15:00Z,29.1144,-90.1840,7.37,11111222 
LUMCON,ioos:station:LUMCON:wisl1:1,2019-07-02T10:30:00Z,29.1144,-90.1840,6.68,11111222 
LUMCON,ioos:station:LUMCON:wisl1:1,2019-07-02T10:45:00Z,29.1144,-90.1840,7.37,11111222 
LUMCON,ioos:station:LUMCON:wisl1:1,2019-07-02T11:00:00Z,29.1144,-90.1840,8.28,11111222 
LUMCON,ioos:station:LUMCON:wisl1:1,2019-07-02T11:15:00Z,29.1144,-90.1840,7.23,11111222 
LUMCON,ioos:station:LUMCON:wisl1:1,2019-07-02T11:30:00Z,29.1144,-90.1840,7.35,11111222 
LUMCON,ioos:station:LUMCON:wisl1:1,2019-07-02T11:45:00Z,29.1144,-90.1840,6.21,11111222 
LUMCON,ioos:station:LUMCON:wisl1:1,2019-07-02T12:00:00Z,29.1144,-90.1840,5.96,11111222 
LUMCON,ioos:station:LUMCON:wisl1:1,2019-07-02T12:15:00Z,29.1144,-90.1840,9.6,11111222 
LUMCON,ioos:station:LUMCON:wisl1:1,2019-07-02T12:30:00Z,29.1144,-90.1840,5.46,11111222 
LUMCON,ioos:station:LUMCON:wisl1:1,2019-07-02T12:45:00Z,29.1144,-90.1840,6.33,11111222 
LUMCON,ioos:station:LUMCON:wisl1:1,2019-07-02T13:00:00Z,29.1144,-90.1840,5.34,11111222 
LUMCON,ioos:station:LUMCON:wisl1:1,2019-07-02T13:15:00Z,29.1144,-90.1840,5.0,11111222 
LUMCON,ioos:station:LUMCON:wisl1:1,2019-07-02T13:30:00Z,29.1144,-90.1840,4.44,11111222 
LUMCON,ioos:station:LUMCON:wisl1:1,2019-07-02T13:45:00Z,29.1144,-90.1840,4.86,11111222 
LUMCON,ioos:station:LUMCON:wisl1:1,2019-07-02T14:00:00Z,29.1144,-90.1840,4.44,11111222 
LUMCON,ioos:station:LUMCON:wisl1:1,2019-07-02T14:15:00Z,29.1144,-90.1840,5.03,11111222 
LUMCON,ioos:station:LUMCON:wisl1:1,2019-07-02T14:30:00Z,29.1144,-90.1840,4.26,11111222 
LUMCON,ioos:station:LUMCON:wisl1:1,2019-07-02T14:45:00Z,29.1144,-90.1840,4.52,11111222 
LUMCON,ioos:station:LUMCON:wisl1:1,2019-07-02T15:00:00Z,29.1144,-90.1840,4.44,11111222 
LUMCON,ioos:station:LUMCON:wisl1:1,2019-07-02T15:15:00Z,29.1144,-90.1840,4.14,11111222 
LUMCON,ioos:station:LUMCON:wisl1:1,2019-07-02T15:30:00Z,29.1144,-90.1840,4.27,11111222 
LUMCON,ioos:station:LUMCON:wisl1:1,2019-07-02T15:45:00Z,29.1144,-90.1840,4.49,11111222 
LUMCON,ioos:station:LUMCON:wisl1:1,2019-07-02T16:00:00Z,29.1144,-90.1840,3.93,11111222 
LUMCON,ioos:station:LUMCON:wisl1:1,2019-07-02T16:15:00Z,29.1144,-90.1840,4.51,11111222 
LUMCON,ioos:station:LUMCON:wisl1:1,2019-07-02T16:30:00Z,29.1144,-90.1840,4.07,11111222 
LUMCON,ioos:station:LUMCON:wisl1:1,2019-07-02T16:45:00Z,29.1144,-90.1840,4.0,11111222 
LUMCON,ioos:station:LUMCON:wisl1:1,2019-07-02T17:00:00Z,29.1144,-90.1840,4.43,11111222 
LUMCON,ioos:station:LUMCON:wisl1:1,2019-07-02T17:15:00Z,29.1144,-90.1840,5.31,11111222 
LUMCON,ioos:station:LUMCON:wisl1:1,2019-07-02T17:30:00Z,29.1144,-90.1840,3.98,11111222 
LUMCON,ioos:station:LUMCON:wisl1:1,2019-07-02T17:45:00Z,29.1144,-90.1840,3.69,11111222 
LUMCON,ioos:station:LUMCON:wisl1:1,2019-07-02T18:00:00Z,29.1144,-90.1840,3.84,11111222 
LUMCON,ioos:station:LUMCON:wisl1:1,2019-07-02T18:15:00Z,29.1144,-90.1840,4.43,11111222 
LUMCON,ioos:station:LUMCON:wisl1:1,2019-07-02T18:30:00Z,29.1144,-90.1840,5.02,11111222 
LUMCON,ioos:station:LUMCON:wisl1:1,2019-07-02T18:45:00Z,29.1144,-90.1840,5.15,11111222 
LUMCON,ioos:station:LUMCON:wisl1:1,2019-07-02T19:00:00Z,29.1144,-90.1840,5.61,11111222 
LUMCON,ioos:station:LUMCON:wisl1:1,2019-07-02T19:15:00Z,29.1144,-90.1840,5.75,11111222 
LUMCON,ioos:station:LUMCON:wisl1:1,2019-07-02T19:30:00Z,29.1144,-90.1840,6.24,11111222 
LUMCON,ioos:station:LUMCON:wisl1:1,2019-07-02T19:45:00Z,29.1144,-90.1840,6.9,11111222 
LUMCON,ioos:station:LUMCON:wisl1:1,2019-07-02T20:00:00Z,29.1144,-90.1840,7.4,11111222 
LUMCON,ioos:station:LUMCON:wisl1:1,2019-07-02T20:15:00Z,29.1144,-90.1840,9.57,11111222 
LUMCON,ioos:station:LUMCON:wisl1:1,2019-07-02T20:30:00Z,29.1144,-90.1840,11.01,11111222 
LUMCON,ioos:station:LUMCON:wisl1:1,2019-07-02T20:45:00Z,29.1144,-90.1840,11.43,11111222 
LUMCON,ioos:station:LUMCON:wisl1:1,2019-07-02T21:00:00Z,29.1144,-90.1840,11.32,11111222 
LUMCON,ioos:station:LUMCON:wisl1:1,2019-07-02T21:15:00Z,29.1144,-90.1840,12.9,11111222 
LUMCON,ioos:station:LUMCON:wisl1:1,2019-07-02T21:30:00Z,29.1144,-90.1840,12.61,11111222 
LUMCON,ioos:station:LUMCON:wisl1:1,2019-07-02T21:45:00Z,29.1144,-90.1840,13.13,11111222 
LUMCON,ioos:station:LUMCON:wisl1:1,2019-07-02T22:00:00Z,29.1144,-90.1840,13.52,11111222 
LUMCON,ioos:station:LUMCON:wisl1:1,2019-07-02T22:15:00Z,29.1144,-90.1840,14.7,11111222 
LUMCON,ioos:station:LUMCON:wisl1:1,2019-07-02T22:30:00Z,29.1144,-90.1840,14.67,11111222 
LUMCON,ioos:station:LUMCON:wisl1:1,2019-07-02T22:45:00Z,29.1144,-90.1840,14.91,11111222 
LUMCON,ioos:station:LUMCON:wisl1:1,2019-07-02T23:00:00Z,29.1144,-90.1840,15.38,11111222 
LUMCON,ioos:station:LUMCON:wisl1:1,2019-07-02T23:15:00Z,29.1144,-90.1840,15.83,11111222 
LUMCON,ioos:station:LUMCON:wisl1:1,2019-07-02T23:30:00Z,29.1144,-90.1840,16.13,11111222 
LUMCON,ioos:station:LUMCON:wisl1:1,2019-07-02T23:45:00Z,29.1144,-90.1840,15.84,11111222 
LUMCON,ioos:station:LUMCON:wisl1:1,2019-07-03T00:00:00Z,29.1144,-90.1840,16.26,11111222 
LUMCON,ioos:station:LUMCON:wisl1:1,2019-07-03T00:15:00Z,29.1144,-90.1840,17.04,11111222 
LUMCON,ioos:station:LUMCON:wisl1:1,2019-07-03T00:30:00Z,29.1144,-90.1840,17.36,11111222 
LUMCON,ioos:station:LUMCON:wisl1:1,2019-07-03T00:45:00Z,29.1144,-90.1840,17.53,11111222 
LUMCON,ioos:station:LUMCON:wisl1:1,2019-07-03T01:00:00Z,29.1144,-90.1840,17.74,11111222 
LUMCON,ioos:station:LUMCON:wisl1:1,2019-07-03T01:15:00Z,29.1144,-90.1840,18.2,11111222 
LUMCON,ioos:station:LUMCON:wisl1:1,2019-07-03T01:30:00Z,29.1144,-90.1840,18.38,11111222 
LUMCON,ioos:station:LUMCON:wisl1:1,2019-07-03T01:45:00Z,29.1144,-90.1840,18.92,11111222 
LUMCON,ioos:station:LUMCON:wisl1:1,2019-07-03T02:00:00Z,29.1144,-90.1840,18.35,11111222 
LUMCON,ioos:station:LUMCON:wisl1:1,2019-07-03T02:15:00Z,29.1144,-90.1840,18.82,11111222 
LUMCON,ioos:station:LUMCON:wisl1:1,2019-07-03T02:30:00Z,29.1144,-90.1840,18.27,11111222 
LUMCON,ioos:station:LUMCON:wisl1:1,2019-07-03T02:45:00Z,29.1144,-90.1840,18.38,11111222 
LUMCON,ioos:station:LUMCON:wisl1:1,2019-07-03T03:00:00Z,29.1144,-90.1840,22.59,11111222 
LUMCON,ioos:station:LUMCON:wisl1:1,2019-07-03T03:15:00Z,29.1144,-90.1840,19.63,11111222 
LUMCON,ioos:station:LUMCON:wisl1:1,2019-07-03T03:30:00Z,29.1144,-90.1840,18.59,11111222 
LUMCON,ioos:station:LUMCON:wisl1:1,2019-07-03T03:45:00Z,29.1144,-90.1840,19.6,11111222 
LUMCON,ioos:station:LUMCON:wisl1:1,2019-07-03T04:00:00Z,29.1144,-90.1840,18.69,11111222 
LUMCON,ioos:station:LUMCON:wisl1:1,2019-07-03T04:15:00Z,29.1144,-90.1840,19.76,11111222 
LUMCON,ioos:station:LUMCON:wisl1:1,2019-07-03T04:30:00Z,29.1144,-90.1840,20.43,11111222 
LUMCON,ioos:station:LUMCON:wisl1:1,2019-07-03T04:45:00Z,29.1144,-90.1840,19.06,11111222 
LUMCON,ioos:station:LUMCON:wisl1:1,2019-07-03T05:00:00Z,29.1144,-90.1840,18.73,11111222 
LUMCON,ioos:station:LUMCON:wisl1:1,2019-07-03T05:15:00Z,29.1144,-90.1840,20.71,11111222 
LUMCON,ioos:station:LUMCON:wisl1:1,2019-07-03T05:30:00Z,29.1144,-90.1840,21.27,11111222 
LUMCON,ioos:station:LUMCON:wisl1:1,2019-07-03T05:45:00Z,29.1144,-90.1840,19.93,11111222 
LUMCON,ioos:station:LUMCON:wisl1:1,2019-07-03T06:00:00Z,29.1144,-90.1840,19.54,11111222 
LUMCON,ioos:station:LUMCON:wisl1:1,2019-07-03T06:15:00Z,29.1144,-90.1840,20.29,11111222 
LUMCON,ioos:station:LUMCON:wisl1:1,2019-07-03T06:30:00Z,29.1144,-90.1840,21.62,11111222 
LUMCON,ioos:station:LUMCON:wisl1:1,2019-07-03T06:45:00Z,29.1144,-90.1840,21.51,11111222 
LUMCON,ioos:station:LUMCON:wisl1:1,2019-07-03T07:00:00Z,29.1144,-90.1840,19.57,11111222 
LUMCON,ioos:station:LUMCON:wisl1:1,2019-07-03T07:15:00Z,29.1144,-90.1840,18.83,11111222 
LUMCON,ioos:station:LUMCON:wisl1:1,2019-07-03T07:30:00Z,29.1144,-90.1840,18.78,11111222 
LUMCON,ioos:station:LUMCON:wisl1:1,2019-07-03T07:45:00Z,29.1144,-90.1840,17.9,11111222 
LUMCON,ioos:station:LUMCON:wisl1:1,2019-07-03T08:00:00Z,29.1144,-90.1840,18.71,11111222 
LUMCON,ioos:station:LUMCON:wisl1:1,2019-07-03T08:15:00Z,29.1144,-90.1840,17.27,11111222 
LUMCON,ioos:station:LUMCON:wisl1:1,2019-07-03T08:30:00Z,29.1144,-90.1840,17.1,11111222 
LUMCON,ioos:station:LUMCON:wisl1:1,2019-07-03T08:45:00Z,29.1144,-90.1840,16.72,11111222 
LUMCON,ioos:station:LUMCON:wisl1:1,2019-07-03T09:00:00Z,29.1144,-90.1840,15.76,11111222 
LUMCON,ioos:station:LUMCON:wisl1:1,2019-07-03T09:15:00Z,29.1144,-90.1840,12.85,11111222 
LUMCON,ioos:station:LUMCON:wisl1:1,2019-07-03T09:30:00Z,29.1144,-90.1840,11.53,11111222 
LUMCON,ioos:station:LUMCON:wisl1:1,2019-07-03T09:45:00Z,29.1144,-90.1840,13.83,11111222 
LUMCON,ioos:station:LUMCON:wisl1:1,2019-07-03T10:00:00Z,29.1144,-90.1840,10.26,11111222 
LUMCON,ioos:station:LUMCON:wisl1:1,2019-07-03T10:15:00Z,29.1144,-90.1840,10.16,11111222 
LUMCON,ioos:station:LUMCON:wisl1:1,2019-07-03T10:30:00Z,29.1144,-90.1840,7.82,11111222 
LUMCON,ioos:station:LUMCON:wisl1:1,2019-07-03T10:45:00Z,29.1144,-90.1840,7.55,11111222 
LUMCON,ioos:station:LUMCON:wisl1:1,2019-07-03T11:00:00Z,29.1144,-90.1840,6.82,11111222 
LUMCON,ioos:station:LUMCON:wisl1:1,2019-07-03T11:15:00Z,29.1144,-90.1840,6.11,11111222 
LUMCON,ioos:station:LUMCON:wisl1:1,2019-07-03T11:30:00Z,29.1144,-90.1840,5.7,11111222 
LUMCON,ioos:station:LUMCON:wisl1:1,2019-07-03T11:45:00Z,29.1144,-90.1840,5.43,11111222 
LUMCON,ioos:station:LUMCON:wisl1:1,2019-07-03T12:00:00Z,29.1144,-90.1840,4.84,11111222 
LUMCON,ioos:station:LUMCON:wisl1:1,2019-07-03T12:15:00Z,29.1144,-90.1840,5.08,11111222 
LUMCON,ioos:station:LUMCON:wisl1:1,2019-07-03T12:30:00Z,29.1144,-90.1840,4.41,11111222 
LUMCON,ioos:station:LUMCON:wisl1:1,2019-07-03T12:45:00Z,29.1144,-90.1840,4.47,11111222 
LUMCON,ioos:station:LUMCON:wisl1:1,2019-07-03T13:00:00Z,29.1144,-90.1840,3.09,11111222 
LUMCON,ioos:station:LUMCON:wisl1:1,2019-07-03T13:15:00Z,29.1144,-90.1840,3.66,11111222 
LUMCON,ioos:station:LUMCON:wisl1:1,2019-07-03T13:30:00Z,29.1144,-90.1840,3.26,11111222 
LUMCON,ioos:station:LUMCON:wisl1:1,2019-07-03T13:45:00Z,29.1144,-90.1840,2.92,11111222 
LUMCON,ioos:station:LUMCON:wisl1:1,2019-07-03T14:00:00Z,29.1144,-90.1840,2.72,11111222 
LUMCON,ioos:station:LUMCON:wisl1:1,2019-07-03T14:15:00Z,29.1144,-90.1840,3.14,11111222 
LUMCON,ioos:station:LUMCON:wisl1:1,2019-07-03T14:30:00Z,29.1144,-90.1840,2.93,11111222 
LUMCON,ioos:station:LUMCON:wisl1:1,2019-07-03T14:45:00Z,29.1144,-90.1840,3.21,11111222 
LUMCON,ioos:station:LUMCON:wisl1:1,2019-07-03T15:00:00Z,29.1144,-90.1840,3.12,11111222 
LUMCON,ioos:station:LUMCON:wisl1:1,2019-07-03T15:15:00Z,29.1144,-90.1840,2.93,11111222 
LUMCON,ioos:station:LUMCON:wisl1:1,2019-07-03T15:30:00Z,29.1144,-90.1840,2.91,11111222 
LUMCON,ioos:station:LUMCON:wisl1:1,2019-07-03T15:45:00Z,29.1144,-90.1840,2.99,11111222 
LUMCON,ioos:station:LUMCON:wisl1:1,2019-07-03T16:00:00Z,29.1144,-90.1840,2.98,11111222 
LUMCON,ioos:station:LUMCON:wisl1:1,2019-07-03T16:15:00Z,29.1144,-90.1840,2.61,11111222 
LUMCON,ioos:station:LUMCON:wisl1:1,2019-07-03T16:30:00Z,29.1144,-90.1840,2.72,11111222 
LUMCON,ioos:station:LUMCON:wisl1:1,2019-07-03T16:45:00Z,29.1144,-90.1840,2.62,11111222 
LUMCON,ioos:station:LUMCON:wisl1:1,2019-07-03T17:00:00Z,29.1144,-90.1840,3.05,11111222 
LUMCON,ioos:station:LUMCON:wisl1:1,2019-07-03T17:15:00Z,29.1144,-90.1840,3.87,11111222 
LUMCON,ioos:station:LUMCON:wisl1:1,2019-07-03T17:30:00Z,29.1144,-90.1840,3.11,11111222 
LUMCON,ioos:station:LUMCON:wisl1:1,2019-07-03T17:45:00Z,29.1144,-90.1840,4.52,11111222 
LUMCON,ioos:station:LUMCON:wisl1:1,2019-07-03T18:00:00Z,29.1144,-90.1840,3.47,11111222 
LUMCON,ioos:station:LUMCON:wisl1:1,2019-07-03T18:15:00Z,29.1144,-90.1840,3.17,11111222 
LUMCON,ioos:station:LUMCON:wisl1:1,2019-07-03T18:30:00Z,29.1144,-90.1840,3.1,11111222 
LUMCON,ioos:station:LUMCON:wisl1:1,2019-07-03T18:45:00Z,29.1144,-90.1840,2.69,11111222 
LUMCON,ioos:station:LUMCON:wisl1:1,2019-07-03T19:00:00Z,29.1144,-90.1840,2.86,11111222 
LUMCON,ioos:station:LUMCON:wisl1:1,2019-07-03T19:15:00Z,29.1144,-90.1840,3.27,11111222 